Paducah, KY

10:01 PM CDT on March 25, 2017 (GMT -0500)
Barkley Regional

Weather History for KPAH - March, 2012

Change the Weather History Date:

Monday, March 5, 2012

  Actual Average Record
Temperature  
Mean Temperature 41 °F 45 °F  
Max Temperature 49 °F 55 °F 78 °F (1938)
Min Temperature 33 °F 35 °F -2 °F (1960)
Degree Days  
Heating Degree Days 24 20  
Month to date heating degree days 92 104  
Since 1 July heating degree days 2895 3400  
Cooling Degree Days 0 0  
Month to date cooling degree days 0 0  
Year to date cooling degree days 0 0  
Moisture  
Dew Point 23 °F    
Average Humidity 51    
Maximum Humidity 67    
Minimum Humidity 34    
Precipitation  
Precipitation 0.00 in 0.12 in 3.29 in (1939)
Month to date precipitation 0.34 0.57  
Year to date precipitation 6.08 8.16  
Snow  
Snow 0.00 in 0.00 in T in (2013)
Month to date snowfall T 0.2  
Since 1 July snowfall 0.7 8.7  
Snow Depth 0.00 in    
Sea Level Pressure  
Sea Level Pressure 30.35 in    
Wind  
Wind Speed 8 mph (North)    
Max Wind Speed 26 mph    
Max Gust Speed 37 mph    
Visibility 10 miles    
Events      
T = Trace of Precipitation, MM = Missing Value Source: NWS Daily Summary

Daily Weather History Graph

Daily Weather History Graph

Search for Another Location

Airport or City:

Trip Planner

Search our weather history database for the weather conditions in past years. The results will help you decide how hot, cold, wet, or windy it might be!

Date:

Astronomy

Mar. 05, 2012 Rise Set
Actual Time 6:19 AM CST 5:53 PM CST
Civil Twilight 5:53 AM CST 6:19 PM CST
Nautical Twilight 5:23 AM CST 6:49 PM CST
Astronomical Twilight 4:53 AM CST 7:19 PM CST
Moon 3:14 PM CST (3/5) 4:15 AM CST (3/5)
Length of Visible Light 12h 25m
Length of Day
11h 33m
Waxing Gibbous, 91% of the Moon is Illuminated
Mar 5
Waxing Gibbous
Mar 8
Full
Mar 14
Last Quarter
Mar 22
New
Mar 30
First Quarter

Hourly Weather History & Observations

Time (CST) Temp. Windchill Dew Point Humidity Pressure Visibility Wind Dir Wind Speed Gust Speed Precip Events Conditions
12:53 AM 42.1 °F 32.8 °F 28.9 °F 60% 30.04 in 10.0 mi NW 21.9 mph 32.2 mph N/A   Clear
1:53 AM 41.0 °F 32.5 °F 25.0 °F 53% 30.11 in 10.0 mi NW 17.3 mph 28.8 mph N/A   Scattered Clouds
2:53 AM 37.9 °F 29.2 °F 26.1 °F 62% 30.15 in 10.0 mi NW 15.0 mph 25.3 mph N/A   Mostly Cloudy
3:53 AM 36.0 °F 26.7 °F 24.1 °F 62% 30.20 in 10.0 mi NNW 15.0 mph 21.9 mph N/A   Mostly Cloudy
4:53 AM 35.1 °F 25.9 °F 24.1 °F 64% 30.26 in 10.0 mi North 13.8 mph 20.7 mph N/A   Mostly Cloudy
5:53 AM 33.1 °F 23.4 °F 23.0 °F 66% 30.30 in 10.0 mi North 13.8 mph - N/A   Mostly Cloudy
6:53 AM 34.0 °F 25.5 °F 23.0 °F 64% 30.36 in 10.0 mi North 11.5 mph - N/A   Overcast
7:53 AM 34.0 °F 26.0 °F 23.0 °F 64% 30.40 in 10.0 mi North 10.4 mph - N/A   Clear
8:53 AM 36.0 °F 32.1 °F 21.9 °F 57% 30.44 in 10.0 mi NNW 4.6 mph - N/A   Clear
9:53 AM 37.9 °F 34.4 °F 21.9 °F 53% 30.45 in 10.0 mi NNW 4.6 mph - N/A   Partly Cloudy
10:53 AM 39.9 °F - 21.9 °F 49% 30.46 in 10.0 mi Calm Calm - N/A   Clear
11:53 AM 42.1 °F 39.2 °F 21.0 °F 43% 30.48 in 10.0 mi WNW 4.6 mph - N/A   Clear
12:53 PM 43.0 °F 41.3 °F 21.9 °F 43% 30.46 in 10.0 mi Variable 3.5 mph - N/A   Clear
1:53 PM 46.0 °F 44.8 °F 21.9 °F 39% 30.43 in 10.0 mi NNE 3.5 mph - N/A   Clear
2:53 PM 46.9 °F - 21.9 °F 37% 30.41 in 10.0 mi Variable 3.5 mph - N/A   Clear
3:53 PM 48.0 °F - 21.9 °F 36% 30.39 in 10.0 mi Variable 5.8 mph - N/A   Clear
4:53 PM 46.9 °F - 21.0 °F 36% 30.40 in 10.0 mi ESE 5.8 mph - N/A   Clear
5:53 PM 44.1 °F 42.5 °F 21.9 °F 42% 30.39 in 10.0 mi South 3.5 mph - N/A   Clear
6:53 PM 43.0 °F 41.3 °F 21.0 °F 42% 30.39 in 10.0 mi South 3.5 mph - N/A   Clear
7:53 PM 37.9 °F 35.5 °F 23.0 °F 55% 30.39 in 10.0 mi SSE 3.5 mph - N/A   Clear
8:53 PM 39.0 °F 35.7 °F 23.0 °F 53% 30.40 in 10.0 mi SSE 4.6 mph - N/A   Clear
9:53 PM 39.0 °F 34.8 °F 23.0 °F 53% 30.39 in 10.0 mi SSE 5.8 mph - N/A   Clear
10:53 PM 37.9 °F 33.5 °F 21.9 °F 53% 30.38 in 10.0 mi SSE 5.8 mph - N/A   Clear
11:53 PM 35.1 °F 30.1 °F 23.0 °F 61% 30.35 in 10.0 mi SE 5.8 mph - N/A   Clear